Time,TemperatureF,DewpointF,PressureIn,WindDirection,WindDirectionDegrees,WindSpeedMPH,WindSpeedGustMPH,Humidity,HourlyPrecipIn,Conditions,Clouds,dailyrainin,SolarRadiationWatts/m^2,SoftwareType,DateUTC
2013-04-19 00:01:00,16.0,2.0,30.39,NNE,14,2.0,7.0,52,0.00,,,0.01,0.000000,,2013-04-19 06:01:00,
2013-04-19 00:11:00,16.0,2.0,30.39,NNE,14,2.0,7.0,52,0.00,,,0.01,0.000000,,2013-04-19 06:11:00,
2013-04-19 00:12:00,15.0,2.0,30.39,East,81,5.0,6.0,55,0.00,,,0.01,0.000000,,2013-04-19 06:12:00,
2013-04-19 00:32:00,15.0,2.0,30.39,East,81,5.0,6.0,55,0.00,,,0.01,0.000000,,2013-04-19 06:32:00,
2013-04-19 00:42:00,15.0,2.0,30.39,East,81,5.0,6.0,55,0.00,,,0.01,0.000000,,2013-04-19 06:42:00,
2013-04-19 00:53:00,15.0,2.0,30.39,East,81,5.0,6.0,55,0.00,,,0.01,0.000000,,2013-04-19 06:53:00,
2013-04-19 01:01:00,15.0,2.0,30.39,East,81,5.0,6.0,55,0.00,,,0.01,0.000000,,2013-04-19 07:01:00,
2013-04-19 02:42:00,15.0,1.0,30.38,East,95,10.0,13.0,52,-99.99,,,0.01,0.000000,,2013-04-19 08:42:00,
2013-04-19 02:52:00,15.0,1.0,30.38,East,95,10.0,13.0,52,-99.99,,,0.01,0.000000,,2013-04-19 08:52:00,
2013-04-19 03:01:00,15.0,1.0,30.38,East,95,10.0,13.0,52,-99.99,,,0.01,0.000000,,2013-04-19 09:01:00,
2013-04-19 03:11:00,15.0,1.0,30.38,East,95,10.0,13.0,52,-99.99,,,0.01,0.000000,,2013-04-19 09:11:00,
2013-04-19 03:12:00,14.0,2.0,30.38,East,90,10.0,16.0,59,0.00,,,0.01,0.000000,,2013-04-19 09:12:00,
2013-04-19 03:33:00,14.0,2.0,30.38,East,90,10.0,16.0,59,0.00,,,0.01,0.000000,,2013-04-19 09:33:00,
2013-04-19 03:43:00,14.0,2.0,30.38,East,90,10.0,16.0,59,0.00,,,0.01,0.000000,,2013-04-19 09:43:00,
2013-04-19 03:52:00,14.0,2.0,30.38,East,90,10.0,16.0,59,0.00,,,0.01,0.000000,,2013-04-19 09:52:00,
2013-04-19 04:02:00,14.0,2.0,30.38,East,90,10.0,16.0,59,0.00,,,0.01,0.000000,,2013-04-19 10:02:00,
2013-04-19 04:33:00,16.0,3.0,30.38,ENE,74,6.0,11.0,55,0.00,,,0.01,0.000000,,2013-04-19 10:33:00,
2013-04-19 04:42:00,16.0,3.0,30.38,ENE,74,6.0,11.0,55,0.00,,,0.01,0.000000,,2013-04-19 10:42:00,
2013-04-19 04:52:00,16.0,3.0,30.38,ENE,74,6.0,11.0,55,0.00,,,0.01,0.000000,,2013-04-19 10:52:00,
2013-04-19 05:02:00,16.0,3.0,30.38,ENE,74,6.0,11.0,55,0.00,,,0.01,0.000000,,2013-04-19 11:02:00,
2013-04-19 05:11:00,16.0,3.0,30.38,ENE,74,6.0,11.0,55,0.00,,,0.01,0.000000,,2013-04-19 11:11:00,
2013-04-19 05:12:00,17.0,4.0,30.38,ENE,69,2.0,6.0,57,0.00,,,0.01,0.000000,,2013-04-19 11:12:00,
2013-04-19 05:32:00,17.0,4.0,30.38,ENE,69,2.0,6.0,57,0.00,,,0.01,0.000000,,2013-04-19 11:32:00,
2013-04-19 05:43:00,17.0,4.0,30.38,ENE,69,2.0,6.0,57,0.00,,,0.01,0.000000,,2013-04-19 11:43:00,
2013-04-19 05:52:00,17.0,4.0,30.38,ENE,69,2.0,6.0,57,0.00,,,0.01,0.000000,,2013-04-19 11:52:00,
2013-04-19 06:02:00,17.0,4.0,30.38,ENE,69,2.0,6.0,57,0.00,,,0.01,0.000000,,2013-04-19 12:02:00,
2013-04-19 06:42:00,16.0,1.0,30.37,NNE,27,3.0,6.0,51,0.00,,,0.01,0.000000,,2013-04-19 12:42:00,
2013-04-19 06:52:00,16.0,1.0,30.37,NNE,27,3.0,6.0,51,0.00,,,0.01,0.000000,,2013-04-19 12:52:00,
2013-04-19 07:01:00,16.0,1.0,30.37,NNE,27,3.0,6.0,51,0.00,,,0.01,0.000000,,2013-04-19 13:01:00,
2013-04-19 07:11:00,16.0,1.0,30.37,NNE,27,3.0,6.0,51,0.00,,,0.01,0.000000,,2013-04-19 13:11:00,
2013-04-19 07:42:00,16.0,2.0,30.38,ENE,70,5.0,8.0,53,0.00,,,0.01,19.000000,,2013-04-19 13:42:00,
2013-04-19 07:52:00,16.0,2.0,30.38,ENE,70,5.0,8.0,53,0.00,,,0.01,19.000000,,2013-04-19 13:52:00,
2013-04-19 08:01:00,16.0,2.0,30.38,ENE,70,5.0,8.0,53,0.00,,,0.01,19.000000,,2013-04-19 14:01:00,
2013-04-19 08:11:00,16.0,2.0,30.38,ENE,70,5.0,8.0,53,0.00,,,0.01,19.000000,,2013-04-19 14:11:00,
2013-04-19 08:32:00,25.0,3.0,30.37,North,3,5.0,7.0,38,0.00,,,0.01,248.000000,,2013-04-19 14:32:00,
2013-04-19 09:01:00,25.0,3.0,30.37,North,3,5.0,7.0,38,0.00,,,0.01,248.000000,,2013-04-19 15:01:00,
2013-04-19 09:11:00,25.0,3.0,30.37,North,3,5.0,7.0,38,0.00,,,0.01,248.000000,,2013-04-19 15:11:00,
2013-04-19 09:12:00,30.0,4.0,30.37,WNW,289,5.0,10.0,32,0.00,,,0.01,534.000000,,2013-04-19 15:12:00,
2013-04-19 09:43:00,30.0,4.0,30.37,WNW,289,5.0,10.0,32,0.00,,,0.01,534.000000,,2013-04-19 15:43:00,
2013-04-19 09:52:00,30.0,4.0,30.37,WNW,289,5.0,10.0,32,0.00,,,0.01,534.000000,,2013-04-19 15:52:00,
2013-04-19 10:03:00,30.0,4.0,30.37,WNW,289,5.0,10.0,32,0.00,,,0.01,534.000000,,2013-04-19 16:03:00,
2013-04-19 10:42:00,36.0,5.0,30.35,NW,317,6.0,8.0,27,0.00,,,0.00,787.000000,,2013-04-19 16:42:00,
2013-04-19 11:11:00,36.0,5.0,30.35,NW,317,6.0,8.0,27,0.00,,,0.00,787.000000,,2013-04-19 17:11:00,
2013-04-19 11:12:00,33.0,6.0,30.35,NW,314,9.0,15.0,31,0.00,,,0.00,943.000000,,2013-04-19 17:12:00,
2013-04-19 11:43:00,33.0,6.0,30.35,NW,314,9.0,15.0,31,0.00,,,0.00,943.000000,,2013-04-19 17:43:00,
2013-04-19 11:52:00,33.0,6.0,30.35,NW,314,9.0,15.0,31,0.00,,,0.00,943.000000,,2013-04-19 17:52:00,
2013-04-19 12:01:00,33.0,6.0,30.35,NW,314,9.0,15.0,31,0.00,,,0.00,943.000000,,2013-04-19 18:01:00,
2013-04-19 12:43:00,33.0,9.0,30.35,WNW,294,10.0,18.0,36,0.00,,,0.00,991.000000,,2013-04-19 18:43:00,
2013-04-19 12:52:00,33.0,9.0,30.35,WNW,294,10.0,18.0,36,0.00,,,0.00,991.000000,,2013-04-19 18:52:00,
2013-04-19 13:01:00,33.0,9.0,30.35,WNW,294,10.0,18.0,36,0.00,,,0.00,991.000000,,2013-04-19 19:01:00,
2013-04-19 13:11:00,33.0,9.0,30.35,WNW,294,10.0,18.0,36,0.00,,,0.00,991.000000,,2013-04-19 19:11:00,
2013-04-19 13:32:00,36.0,9.0,30.33,WNW,303,11.0,21.0,32,0.00,,,0.00,1094.000000,,2013-04-19 19:32:00,
2013-04-19 13:42:00,36.0,9.0,30.33,WNW,303,11.0,21.0,32,0.00,,,0.00,1094.000000,,2013-04-19 19:42:00,
2013-04-19 13:52:00,36.0,9.0,30.33,WNW,303,11.0,21.0,32,0.00,,,0.00,1094.000000,,2013-04-19 19:52:00,
2013-04-19 14:01:00,36.0,9.0,30.33,WNW,303,11.0,21.0,32,0.00,,,0.00,1094.000000,,2013-04-19 20:01:00,
2013-04-19 14:11:00,36.0,9.0,30.33,WNW,303,11.0,21.0,32,0.00,,,0.00,1094.000000,,2013-04-19 20:11:00,
2013-04-19 14:42:00,39.0,12.0,30.32,WNW,294,11.0,19.0,33,0.00,,,0.00,1149.000000,,2013-04-19 20:42:00,
2013-04-19 14:52:00,39.0,12.0,30.32,WNW,294,11.0,19.0,33,0.00,,,0.00,1149.000000,,2013-04-19 20:52:00,
2013-04-19 15:01:00,39.0,12.0,30.32,WNW,294,11.0,19.0,33,0.00,,,0.00,1149.000000,,2013-04-19 21:01:00,
2013-04-19 15:11:00,39.0,12.0,30.32,WNW,294,11.0,19.0,33,0.00,,,0.00,1149.000000,,2013-04-19 21:11:00,
2013-04-19 16:33:00,37.0,14.0,30.28,WNW,293,11.0,18.0,39,-99.99,,,0.03,796.000000,,2013-04-19 22:33:00,
2013-04-19 16:42:00,37.0,14.0,30.28,WNW,293,11.0,18.0,39,-99.99,,,0.03,796.000000,,2013-04-19 22:42:00,
2013-04-19 16:52:00,37.0,14.0,30.28,WNW,293,11.0,18.0,39,-99.99,,,0.03,796.000000,,2013-04-19 22:52:00,
2013-04-19 17:02:00,37.0,14.0,30.28,WNW,293,11.0,18.0,39,-99.99,,,0.03,796.000000,,2013-04-19 23:02:00,
2013-04-19 17:11:00,37.0,14.0,30.28,WNW,293,11.0,18.0,39,-99.99,,,0.03,796.000000,,2013-04-19 23:11:00,
2013-04-19 17:42:00,32.0,18.0,30.27,NW,323,16.0,24.0,55,0.00,,,0.03,343.000000,,2013-04-19 23:42:00,
2013-04-19 17:52:00,32.0,18.0,30.27,NW,323,16.0,24.0,55,0.00,,,0.03,343.000000,,2013-04-19 23:52:00,
2013-04-19 18:01:00,32.0,18.0,30.27,NW,323,16.0,24.0,55,0.00,,,0.03,343.000000,,2013-04-20 00:01:00,
2013-04-19 18:11:00,32.0,18.0,30.27,NW,323,16.0,24.0,55,0.00,,,0.03,343.000000,,2013-04-20 00:11:00,
2013-04-19 19:32:00,30.0,17.0,30.25,NW,325,9.0,18.0,57,-99.99,,,0.03,103.000000,,2013-04-20 01:32:00,
2013-04-19 19:42:00,30.0,17.0,30.25,NW,325,9.0,18.0,57,-99.99,,,0.03,103.000000,,2013-04-20 01:42:00,
2013-04-19 19:52:00,30.0,17.0,30.25,NW,325,9.0,18.0,57,-99.99,,,0.03,103.000000,,2013-04-20 01:52:00,
2013-04-19 20:01:00,30.0,17.0,30.25,NW,325,9.0,18.0,57,-99.99,,,0.03,103.000000,,2013-04-20 02:01:00,
2013-04-19 20:11:00,30.0,17.0,30.25,NW,325,9.0,18.0,57,-99.99,,,0.03,103.000000,,2013-04-20 02:11:00,
2013-04-19 20:32:00,28.0,17.0,30.25,North,357,4.0,15.0,63,0.00,,,0.03,12.000000,,2013-04-20 02:32:00,
2013-04-19 20:42:00,28.0,17.0,30.25,North,357,4.0,15.0,63,0.00,,,0.03,12.000000,,2013-04-20 02:42:00,
2013-04-19 20:52:00,28.0,17.0,30.25,North,357,4.0,15.0,63,0.00,,,0.03,12.000000,,2013-04-20 02:52:00,
2013-04-19 21:01:00,28.0,17.0,30.25,North,357,4.0,15.0,63,0.00,,,0.03,12.000000,,2013-04-20 03:01:00,
2013-04-19 21:11:00,28.0,17.0,30.25,North,357,4.0,15.0,63,0.00,,,0.03,12.000000,,2013-04-20 03:11:00,
2013-04-19 21:12:00,28.0,17.0,30.27,SE,124,2.0,10.0,64,0.00,,,0.03,0.000000,,2013-04-20 03:12:00,
2013-04-19 21:43:00,28.0,17.0,30.27,SE,124,2.0,10.0,64,0.00,,,0.03,0.000000,,2013-04-20 03:43:00,
2013-04-19 21:53:00,28.0,17.0,30.27,SE,124,2.0,10.0,64,0.00,,,0.03,0.000000,,2013-04-20 03:53:00,
2013-04-19 22:03:00,28.0,17.0,30.27,SE,124,2.0,10.0,64,0.00,,,0.03,0.000000,,2013-04-20 04:03:00,
2013-04-19 22:12:00,27.0,22.0,30.26,SW,218,0.0,8.0,81,0.00,,,0.03,0.000000,,2013-04-20 04:12:00,
2013-04-19 22:43:00,27.0,22.0,30.26,SW,218,0.0,8.0,81,0.00,,,0.03,0.000000,,2013-04-20 04:43:00,
2013-04-19 22:52:00,27.0,22.0,30.26,SW,218,0.0,8.0,81,0.00,,,0.03,0.000000,,2013-04-20 04:52:00,
2013-04-19 23:02:00,27.0,22.0,30.26,SW,218,0.0,8.0,81,0.00,,,0.03,0.000000,,2013-04-20 05:02:00,
2013-04-19 23:12:00,27.0,23.0,30.25,SE,126,3.0,5.0,84,0.00,,,0.03,0.000000,,2013-04-20 05:12:00,
2013-04-19 23:32:00,27.0,23.0,30.25,SE,126,3.0,5.0,84,0.00,,,0.03,0.000000,,2013-04-20 05:32:00,
2013-04-19 23:43:00,27.0,23.0,30.25,SE,126,3.0,5.0,84,0.00,,,0.03,0.000000,,2013-04-20 05:43:00,
2013-04-19 23:52:00,27.0,23.0,30.25,SE,126,3.0,5.0,84,0.00,,,0.03,0.000000,,2013-04-20 05:52:00,